15min,AgWx,beryljct,423,17JUL2019:00:00:00,63.5,12.93,68.8,64.7,62.6,64.8,61.0,28,31,23,0.492,29.0,31.5,25.8,1.995,2.4,237,54,6.1,0.00004,0.00012,71.3,71.0,10,0,.,.,16.02,0.01,0.00
15min,AgWx,beryljct,423,17JUL2019:00:15:00,63.0,12.93,60.1,60.1,62.9,65.6,60.1,26,33,21,0.579,27.3,30.8,24.5,1.228,1.4,266,31,4.1,-0.00013,-0.00014,71.0,70.9,9,0,.,.,16.03,0.00,0.00
15min,AgWx,beryljct,423,17JUL2019:00:30:00,62.2,12.93,57.9,62.0,61.8,63.1,59.8,29,34,26,0.543,29.2,31.7,27.1,0.088,0.3,213,11,1.5,-0.00038,-0.00058,70.8,70.9,10,0,.,.,16.03,0.00,0.00
15min,AgWx,beryljct,423,17JUL2019:00:45:00,61.3,12.91,64.6,62.7,62.4,64.9,60.6,27,32,21,0.510,28.1,31.5,23.8,0.285,0.8,204,11,3.9,-0.00028,-0.00039,70.5,70.8,10,0,.,.,16.02,0.00,0.00
15min,AgWx,beryljct,423,17JUL2019:01:00:00,60.8,12.92,60.6,60.4,60.8,64.5,57.6,27,36,22,0.409,26.8,33.4,21.8,2.017,2.8,174,18,4.8,0.00011,0.00021,70.2,70.7,10,0,.,.,16.03,0.00,0.00
15min,AgWx,beryljct,423,17JUL2019:01:15:00,59.9,12.91,55.1,55.6,58.1,60.5,55.6,26,37,22,0.558,23.3,30.4,20.7,4.077,3.2,192,5.8,4.4,0.00017,0.00029,69.9,70.7,10,0,.,.,16.03,0.00,0.00
15min,AgWx,beryljct,423,17JUL2019:01:30:00,59.0,12.9,61.1,59.9,58.3,59.9,55.5,28,36,23,0.412,24.8,29.3,22.3,3.529,4.7,183,3.1,6.1,0.00034,0.00050,69.7,70.6,10,0,.,.,16.03,0.00,0.00
15min,AgWx,beryljct,423,17JUL2019:01:45:00,58.2,12.89,56.6,57.4,57.3,59.9,55.9,27,30,22,0.434,23.1,25.8,20.3,2.411,3.7,202,13,5.3,0.00023,0.00036,69.4,70.5,10,0,.,.,16.03,0.00,0.00
15min,AgWx,beryljct,423,17JUL2019:02:00:00,57.4,12.88,52.4,52.3,54.9,57.3,52.3,36,52,25,0.694,28.0,35.2,21.3,0.219,1.8,173,1.9,3.2,-0.00006,-0.00005,69.1,70.5,10,0,.,.,16.03,0.00,0.00
15min,AgWx,beryljct,423,17JUL2019:02:15:00,56.2,12.89,58.4,55.7,52.3,55.7,50.7,49,60,32,0.498,33.5,37.4,26.1,3.113,3.3,142,6.6,5.2,0.00005,0.00010,68.9,70.4,10,0,.,.,16.03,0.00,0.00
15min,AgWx,beryljct,423,17JUL2019:02:30:00,55.6,12.89,55.1,55.8,55.1,56.8,53.3,33,38,26,0.410,26.1,30.8,21.1,3.113,3.8,183,17,5.0,0.00019,0.00031,68.6,70.4,10,0,.,.,16.04,0.00,0.00
15min,AgWx,beryljct,423,17JUL2019:02:45:00,55.0,12.87,50.4,51.0,52.7,58.0,49.2,38,54,23,0.488,27.1,33.7,20.7,3.179,3.4,293,59,5.8,0.00013,0.00021,68.4,70.3,10,0,.,.,16.04,0.00,0.00
15min,AgWx,beryljct,423,17JUL2019:03:00:00,54.0,12.87,54.0,53.2,51.5,53.2,49.1,39,51,32,0.449,26.9,31.6,23.7,0.965,0.8,311,0.2,3.1,-0.00023,-0.00032,68.1,70.2,10,0,.,.,16.04,0.00,0.00
15min,AgWx,beryljct,423,17JUL2019:03:15:00,53.4,12.87,49.1,50.3,53.3,55.0,50.3,38,58,30,0.714,27.7,35.9,23.7,4.077,1.3,319,49,4.1,-0.00015,-0.00019,67.9,70.1,10,0,.,.,16.04,0.00,0.00
15min,AgWx,beryljct,423,17JUL2019:03:30:00,52.8,12.87,50.0,50.5,49.6,50.8,48.5,59,65,52,0.667,35.7,37.4,33.5,2.806,2.8,118,21,4.6,-0.00003,-0.00001,67.6,70.0,10,0,.,.,16.03,0.00,0.00
15min,AgWx,beryljct,423,17JUL2019:03:45:00,52.3,12.86,51.1,51.7,50.3,51.9,48.9,48,57,35,0.501,30.9,34.7,25.1,5.59,4.2,181,18,5.6,0.00012,0.00020,67.4,69.9,10,0,.,.,16.04,0.01,0.00
15min,AgWx,beryljct,423,17JUL2019:04:00:00,52.2,12.86,56.6,53.8,53.5,55.8,50.9,35,41,31,0.504,26.7,29.6,25.4,1.644,3.9,200,27,5.5,0.00019,0.00029,67.1,69.8,10,0,.,.,16.04,0.00,0.00
15min,AgWx,beryljct,423,17JUL2019:04:15:00,52.0,12.85,49.0,48.5,49.2,54.4,47.4,50,61,35,0.693,31.3,35.6,27.3,0.943,1.6,293,7.9,3.7,-0.00012,-0.00014,66.9,69.7,10,0,.,.,16.04,0.00,0.00
15min,AgWx,beryljct,423,17JUL2019:04:30:00,51.3,12.84,51.6,50.4,49.9,51.7,48.5,42,59,33,0.472,27.7,34.8,23.6,3.946,2.6,301,2.6,5.3,0.00001,0.00005,66.6,69.6,10,0,.,.,16.05,0.00,0.00
15min,AgWx,beryljct,423,17JUL2019:04:45:00,51.0,12.85,52.0,50.6,51.9,54.2,50.1,36,45,29,0.528,25.7,29.7,22.3,0.921,3.1,304,1.4,4.3,0.00049,0.00085,66.4,69.5,10,0,.,.,16.04,0.00,0.00
15min,AgWx,beryljct,423,17JUL2019:05:00:00,50.7,12.84,57.6,55.2,52.5,55.2,50.8,39,44,32,0.475,28.3,30.1,25.8,3.508,0.4,299,12,3.6,0.00007,0.00012,66.1,69.4,10,0,.,.,16.04,0.00,0.00
15min,AgWx,beryljct,423,17JUL2019:05:15:00,51.2,12.84,52.2,53.5,54.0,55.7,52.5,36,42,30,0.550,27.4,29.8,24.9,2.916,3.6,213,9.3,4.6,0.00058,0.00102,65.8,69.3,10,1,.,.,16.05,0.00,0.00
15min,AgWx,beryljct,423,17JUL2019:05:30:00,51.3,12.83,46.6,47.1,51.9,56.1,47.1,44,59,32,0.593,30.2,36.3,26.3,4.034,3.4,152,76,4.6,0.00050,0.00086,65.5,69.2,10,4,.,.,16.05,0.00,0.00
15min,AgWx,beryljct,423,17JUL2019:05:45:00,50.5,12.86,45.3,44.5,45.6,47.0,44.0,52,59,45,0.536,28.8,31.0,26.3,3.442,3.4,1.5,37,5.0,0.00048,0.00075,65.3,69.1,9,24,.,.,16.05,0.00,0.00
15min,AgWx,beryljct,423,17JUL2019:06:00:00,49.9,12.88,45.4,45.7,45.8,46.8,44.6,47,53,41,0.519,26.9,28.6,24.4,4.45,4.4,320,6.9,5.7,0.00075,0.00112,65.0,69.0,9,58,.,.,16.05,0.00,0.00
15min,AgWx,beryljct,423,17JUL2019:06:15:00,49.9,12.87,47.2,47.7,46.7,48.3,45.4,49,51,45,0.542,28.3,29.5,27.3,1.074,4.1,336,7.5,5.7,0.00085,0.00122,64.7,68.9,10,97,.,.,16.04,0.00,0.00
15min,AgWx,beryljct,423,17JUL2019:06:30:00,51.1,12.86,51.5,50.9,49.0,50.9,47.4,47,51,40,0.537,29.6,31.7,27.2,3.354,1.6,350,9.2,3.4,0.00082,0.00101,64.5,68.7,10,138,.,.,16.04,0.00,0.00
15min,AgWx,beryljct,423,17JUL2019:06:45:00,53.0,12.87,53.8,53.4,52.4,53.5,50.9,43,51,39,0.696,30.8,35.6,27.6,0,1.5,6.9,1.9,3.2,0.00106,0.00128,64.2,68.6,9,176,.,.,16.04,0.00,0.00
15min,AgWx,beryljct,423,17JUL2019:07:00:00,55.5,12.89,57.6,57.4,55.4,57.4,53.5,46,52,39,0.641,35.0,37.2,32.5,1.6,0.7,7.9,0.0,1.8,0.00126,0.00141,64.0,68.5,10,230,.,.,16.04,0.00,0.00
15min,AgWx,beryljct,423,17JUL2019:07:15:00,58.6,12.91,60.7,60.3,58.8,60.4,57.4,40,45,35,0.660,34.7,37.8,31.3,0.636,0.4,8.4,1.2,1.9,0.00157,0.00173,63.8,68.4,10,280,.,.,16.03,0.00,0.00
15min,AgWx,beryljct,423,17JUL2019:07:30:00,61.8,12.92,62.8,63.3,62.0,63.7,60.4,33,37,30,0.616,32.3,34.4,29.9,0,0.1,13,0.0,1.0,0.00187,0.00201,63.6,68.3,9,330,.,.,16.03,0.00,0.00
15min,AgWx,beryljct,423,17JUL2019:07:45:00,65.1,12.98,66.3,66.0,64.6,66.0,63.1,29,32,27,0.627,32.0,33.7,29.8,0,0.0,13,0.0,0.5,0.00221,0.00236,63.5,68.2,10,380,.,.,16.03,0.00,0.00
15min,AgWx,beryljct,423,17JUL2019:08:00:00,68.3,13.08,68.2,68.0,67.3,68.0,66.0,28,30,26,0.659,32.8,34.6,31.2,1.798,0.6,357,9.2,2.2,0.00268,0.00296,63.4,68.1,9,430,.,.,16.02,0.00,0.00
15min,AgWx,beryljct,423,17JUL2019:08:15:00,71.3,13.24,70.5,70.1,69.3,70.2,68.1,28,30,26,0.667,35.0,37.0,33.3,2.192,1.2,26,31,3.2,0.00316,0.00356,63.4,67.9,10,482,.,.,16.02,0.00,0.00
15min,AgWx,beryljct,423,17JUL2019:08:30:00,73.6,13.44,72.3,72.5,71.5,72.5,70.1,27,30,25,0.750,35.4,39.0,33.0,5.459,2.8,59,11,5.5,0.00380,0.00450,63.5,67.8,9,534,.,.,16.02,0.00,0.00
15min,AgWx,beryljct,423,17JUL2019:08:45:00,75.8,13.68,74.2,75.0,73.5,75.0,72.5,26,29,24,0.766,36.4,38.7,34.7,3.683,3.3,52,18,5.3,0.00425,0.00507,63.6,67.7,9,581,.,.,16.01,0.00,0.00
15min,AgWx,beryljct,423,17JUL2019:09:00:00,78.0,13.97,81.4,80.5,77.6,80.8,74.7,21,26,15,0.598,34.4,39.3,29.4,13.31,6.7,118,86,14.2,0.00527,0.00675,63.8,67.6,9,627,.,.,16.01,0.00,0.00
15min,AgWx,beryljct,423,17JUL2019:09:15:00,80.3,13.94,82.0,81.9,80.7,81.9,80.3,17,18,15,0.564,31.7,33.7,29.1,12.19,11.2,174,13,14.7,0.00650,0.00888,64.0,67.5,9,671,.,.,16.01,0.00,0.00
15min,AgWx,beryljct,423,17JUL2019:09:30:00,82.1,13.89,85.4,83.6,82.5,83.8,81.6,15,17,14,0.572,30.4,33.5,28.4,11.05,11.8,186,13,16.8,0.00702,0.00960,64.3,67.4,9,714,.,.,16.01,0.00,0.00
15min,AgWx,beryljct,423,17JUL2019:09:45:00,83.6,13.87,83.4,82.7,82.9,83.9,81.9,15,18,13,0.614,29.7,34.0,27.7,8.77,13.0,185,14,18.3,0.00748,0.01028,64.6,67.3,9,755,.,.,16.00,0.00,0.00
15min,AgWx,beryljct,423,17JUL2019:10:00:00,84.4,13.86,83.6,84.1,82.8,84.1,81.9,15,17,13,0.533,30.6,33.6,27.0,13.2,13.2,180,17,21.5,0.00770,0.01051,64.8,67.2,9,795,.,.,16.00,0.00,0.00
15min,AgWx,beryljct,423,17JUL2019:10:15:00,85.2,13.91,85.1,84.4,84.4,85.4,83.7,13,14,12,0.508,28.2,29.6,27.3,12.78,13.6,197,13,19.2,0.00820,0.01123,65.1,67.1,9,832,.,.,16.00,0.00,0.00
15min,AgWx,beryljct,423,17JUL2019:10:30:00,85.9,13.9,83.9,84.3,84.4,85.6,82.9,13,15,12,0.505,28.1,30.9,26.5,12.63,12.8,194,16,21.1,0.00828,0.01119,65.4,67.1,9,866,.,.,16.00,0.00,0.00
15min,AgWx,beryljct,423,17JUL2019:10:45:00,86.5,13.81,85.3,85.1,85.2,86.1,83.9,13,15,11,0.476,27.9,31.3,25.4,12.91,14.8,206,16,21.7,0.00883,0.01209,65.6,67.1,9,899,.,.,16.00,0.00,0.00
15min,AgWx,beryljct,423,17JUL2019:11:00:00,86.9,13.83,85.1,85.0,85.4,86.2,84.6,11,13,10,0.463,25.5,28.5,23.9,18.57,18.5,209,13,25.9,0.00954,0.01338,65.9,67.0,9,929,.,.,16.00,0.00,0.00
15min,AgWx,beryljct,423,17JUL2019:11:15:00,87.0,13.41,87.4,86.2,85.2,86.2,84.3,12,13,11,0.545,27.4,29.2,25.1,13.15,17.2,194,13,29.7,0.00948,0.01313,66.2,67.0,9,956,.,.,16.00,0.00,0.00
15min,AgWx,beryljct,423,17JUL2019:11:30:00,87.2,13.44,87.1,86.3,85.8,87.0,85.2,12,13,11,0.539,27.6,30.0,26.3,14.32,18.7,215,14,26.8,0.00981,0.01369,66.5,66.9,9,970,.,.,16.00,0.00,0.00
15min,AgWx,beryljct,423,17JUL2019:11:45:00,87.3,13.39,85.4,85.5,86.0,86.7,85.3,11,13,9.6,0.468,26.2,29.8,22.3,21.37,21.1,209,15,29.7,0.01018,0.01442,66.8,66.9,10,977,.,.,16.00,0.00,0.00
15min,AgWx,beryljct,423,17JUL2019:12:00:00,87.4,13.39,86.0,86.1,86.1,86.6,85.5,10,11,9.5,0.405,24.0,25.2,22.0,20.69,21.1,206,10,30.0,0.01042,0.01472,67.1,66.9,9,1013,.,.,15.99,0.00,0.00
15min,AgWx,beryljct,423,17JUL2019:12:15:00,87.6,13.43,85.6,86.5,86.5,87.0,86.0,9.7,11,9.0,0.390,22.8,25.2,20.8,28.85,20.5,208,9.9,28.9,0.01044,0.01470,67.4,66.9,10,1020,.,.,16.00,0.00,0.00
15min,AgWx,beryljct,423,17JUL2019:12:30:00,87.8,13.4,85.9,86.5,86.4,86.8,86.1,9.3,9.9,8.5,0.407,21.8,23.3,19.5,21.2,22.2,207,11,29.6,0.01071,0.01523,67.7,67.0,10,1030,.,.,16.00,0.00,0.00
15min,AgWx,beryljct,423,17JUL2019:12:45:00,88.2,13.39,88.5,88.2,87.5,89.2,86.3,9.1,9.9,7.9,0.445,21.9,24.4,18.5,18.55,19.5,215,13,27.9,0.01052,0.01476,68.1,67.0,9,1027,.,.,16.00,0.00,0.00
15min,AgWx,beryljct,423,17JUL2019:13:00:00,88.8,13.41,86.6,87.2,87.8,88.8,87.0,9.3,10,8.6,0.420,22.7,25.3,21.0,17.38,19.5,208,16,27.4,0.01053,0.01477,68.4,67.0,9,1022,.,.,16.00,0.00,0.00
15min,AgWx,beryljct,423,17JUL2019:13:15:00,89.4,13.48,86.5,87.9,88.4,89.4,86.9,8.8,9.5,8.5,0.406,22.0,23.9,20.7,22.12,20.9,203,16,28.5,0.01075,0.01522,68.8,67.1,9,1019,.,.,16.00,0.01,0.00
15min,AgWx,beryljct,423,17JUL2019:13:30:00,89.4,13.39,87.1,87.9,88.0,88.7,87.6,8.9,9.7,7.8,0.367,21.8,23.9,18.6,28.08,22.0,212,11,30.4,0.01082,0.01541,69.2,67.1,10,1013,.,.,16.00,0.00,0.00
15min,AgWx,beryljct,423,17JUL2019:13:45:00,89.5,13.35,86.5,88.1,88.1,88.7,87.5,8.6,9.5,7.9,0.382,21.1,23.5,18.9,18.5,21.2,220,9.2,28.4,0.01067,0.01520,69.5,67.1,9,997,.,.,16.00,0.00,0.00
15min,AgWx,beryljct,423,17JUL2019:14:00:00,89.8,13.31,88.7,88.0,89.2,90.4,87.9,8.4,9.5,7.4,0.373,21.5,25.1,18.3,24.73,19.6,202,16,30.3,0.01045,0.01479,69.9,67.2,9,979,.,.,16.00,0.00,0.00
15min,AgWx,beryljct,423,17JUL2019:14:15:00,89.9,13.34,88.3,88.9,88.6,89.7,87.8,7.6,8.8,6.8,0.350,18.7,21.8,16.3,20.26,21.2,193,9.8,31.0,0.01056,0.01514,70.2,67.3,9,964,.,.,16.00,0.01,0.00
15min,AgWx,beryljct,423,17JUL2019:14:30:00,90.1,13.34,89.0,89.4,89.1,89.9,88.5,6.9,7.5,6.4,0.314,16.6,18.9,14.6,21.88,20.0,205,9.3,27.5,0.01035,0.01481,70.6,67.3,9,942,.,.,16.01,0.00,0.00
15min,AgWx,beryljct,423,17JUL2019:14:45:00,90.4,13.31,90.2,89.8,89.4,90.1,88.6,7.1,7.7,6.6,0.331,17.8,19.8,15.9,18.68,20.4,193,10,27.9,0.01027,0.01479,70.9,67.4,10,916,.,.,16.00,0.00,0.00
15min,AgWx,beryljct,423,17JUL2019:15:00:00,90.8,13.3,90.0,89.2,89.4,90.3,88.9,7.4,8.0,6.7,0.354,18.5,20.5,16.5,14.99,19.8,202,14,28.1,0.00986,0.01426,71.2,67.5,9,866,.,.,16.00,0.00,0.00
15min,AgWx,beryljct,423,17JUL2019:15:15:00,91.1,13.3,89.6,90.0,89.3,90.4,88.3,6.9,7.7,6.5,0.311,16.9,19.5,15.4,15.32,19.6,209,15,31.5,0.00963,0.01400,71.5,67.6,9,833,.,.,16.00,0.00,0.00
15min,AgWx,beryljct,423,17JUL2019:15:30:00,91.4,13.31,91.1,89.3,89.5,90.2,89.1,6.7,7.2,6.0,0.337,16.3,18.2,13.6,11.09,17.6,217,14,25.5,0.00901,0.01307,71.8,67.7,9,781,.,.,16.00,0.00,0.00
15min,AgWx,beryljct,423,17JUL2019:15:45:00,91.8,13.31,89.6,89.7,89.8,90.6,89.2,6.7,7.3,6.4,0.338,16.7,18.8,15.3,18,17.7,207,12,23.8,0.00879,0.01284,72.1,67.8,10,743,.,.,16.00,0.00,0.00
15min,AgWx,beryljct,423,17JUL2019:16:00:00,92.0,13.3,89.9,89.4,89.3,90.1,88.3,7.6,8.6,6.7,0.404,19.0,22.4,16.1,13.81,15.9,203,14,22.6,0.00837,0.01209,72.3,67.9,9,735,.,.,16.00,0.00,0.00
15min,AgWx,beryljct,423,17JUL2019:16:15:00,92.1,13.28,88.0,88.0,89.0,89.7,88.0,8.9,9.3,8.4,0.419,22.6,23.8,21.5,11.66,16.2,210,14,24.0,0.00805,0.01175,72.6,68.0,9,686,.,.,16.00,0.00,0.00
15min,AgWx,beryljct,423,17JUL2019:16:30:00,91.8,13.34,88.6,88.9,88.4,89.1,87.7,9.1,11,8.7,0.421,22.6,25.8,21.5,24.57,17.0,186,12,24.6,0.00765,0.01139,72.8,68.1,9,617,.,.,16.00,0.00,0.00
15min,AgWx,beryljct,423,17JUL2019:16:45:00,91.6,13.32,89.0,88.7,88.5,89.5,88.1,9.2,9.5,8.8,0.437,23.0,24.4,22.0,10.41,15.0,203,15,22.0,0.00714,0.01060,73.0,68.2,10,584,.,.,16.00,0.00,0.00
15min,AgWx,beryljct,423,17JUL2019:17:00:00,91.4,13.29,88.4,88.2,88.5,89.2,88.2,9.3,9.7,8.8,0.434,23.3,24.5,22.2,16.42,16.6,196,12,25.3,0.00718,0.01084,73.2,68.3,9,552,.,.,16.00,0.00,0.00
15min,AgWx,beryljct,423,17JUL2019:17:15:00,91.1,13.3,87.1,88.1,87.8,88.4,87.3,9.8,12,9.4,0.441,24.0,28.6,23.0,18.2,15.8,197,14,21.6,0.00673,0.01021,73.3,68.5,10,513,.,.,16.00,0.00,0.00
15min,AgWx,beryljct,423,17JUL2019:17:30:00,90.5,13.3,86.8,87.0,87.5,88.2,87.0,9.9,10,9.4,0.438,24.0,25.2,22.8,17.49,16.2,205,11,22.5,0.00623,0.00972,73.4,68.6,9,429,.,.,16.00,0.00,0.00
15min,AgWx,beryljct,423,17JUL2019:17:45:00,90.0,13.31,86.2,86.8,87.1,87.6,86.7,10,11,9.9,0.452,24.7,25.8,23.5,15.5,15.1,201,12,20.8,0.00595,0.00924,73.5,68.7,9,423,.,.,16.00,0.00,0.00
15min,AgWx,beryljct,423,17JUL2019:18:00:00,89.2,13.31,85.9,86.1,86.3,86.7,85.9,11,12,10,0.477,25.8,27.9,24.4,14.89,13.9,191,14,22.2,0.00478,0.00776,73.5,68.8,10,290,.,.,16.00,0.00,0.00
15min,AgWx,beryljct,423,17JUL2019:18:15:00,88.3,13.24,85.7,85.6,85.8,86.2,85.4,11,12,11,0.481,26.0,27.0,24.9,14.23,12.8,201,10,17.8,0.00405,0.00679,73.5,68.9,9,221,.,.,16.00,0.00,0.00
15min,AgWx,beryljct,423,17JUL2019:18:30:00,87.6,13.2,85.1,85.5,85.7,85.9,85.5,11,12,11,0.476,26.1,26.8,25.4,14.99,12.9,200,9.1,17.3,0.00426,0.00702,73.5,69.0,9,250,.,.,16.00,0.00,0.00
15min,AgWx,beryljct,423,17JUL2019:18:45:00,86.9,13.18,83.9,84.2,84.8,85.4,84.2,12,12,11,0.479,26.2,27.2,25.6,12.28,12.4,200,9.1,16.9,0.00353,0.00613,73.4,69.2,10,162,.,.,16.01,0.01,0.00
15min,AgWx,beryljct,423,17JUL2019:19:00:00,85.7,13.16,83.6,83.6,83.9,84.2,83.5,12,13,12,0.476,26.1,26.8,25.6,11.79,12.3,196,9.8,16.3,0.00207,0.00268,73.4,69.3,10,122,.,.,16.01,0.00,0.00
15min,AgWx,beryljct,423,17JUL2019:19:15:00,84.8,13.15,81.9,82.3,83.2,83.7,82.3,12,13,12,0.488,26.1,26.8,25.4,8.48,11.3,191,9.4,16.8,0.00190,0.00249,73.3,69.4,10,97,.,.,16.01,0.00,0.00
15min,AgWx,beryljct,423,17JUL2019:19:30:00,83.5,13.14,81.9,81.7,81.9,82.4,81.6,13,13,12,0.467,25.9,26.8,25.2,13.94,10.6,195,7.9,15.0,0.00167,0.00222,73.2,69.4,10,57,.,.,16.01,0.00,0.00
15min,AgWx,beryljct,423,17JUL2019:19:45:00,82.2,13.1,80.1,80.6,81.1,81.9,80.3,13,13,12,0.467,25.5,26.0,25.0,9.12,10.7,192,5.9,14.1,0.00158,0.00210,73.0,69.5,9,23,.,.,16.01,0.00,0.00
15min,AgWx,beryljct,423,17JUL2019:20:00:00,80.9,13.08,78.3,78.8,79.7,80.5,78.8,14,14,13,0.479,25.6,26.0,25.0,7.278,9.0,191,7.0,12.5,0.00130,0.00177,72.8,69.6,10,5,.,.,16.01,0.00,0.00
15min,AgWx,beryljct,423,17JUL2019:20:15:00,79.3,13.08,76.9,76.8,77.8,78.7,76.8,15,15,14,0.476,25.7,26.1,25.4,7.059,7.3,187,4.6,10.1,0.00102,0.00144,72.6,69.6,10,2,.,.,16.01,0.00,0.00
15min,AgWx,beryljct,423,17JUL2019:20:30:00,77.6,13.07,74.4,74.8,76.0,76.8,74.8,16,17,15,0.476,26.2,27.1,25.6,5.963,5.9,179,6.5,8.0,0.00078,0.00114,72.4,69.7,10,0,.,.,16.01,0.00,0.00
15min,AgWx,beryljct,423,17JUL2019:20:45:00,76.0,13.06,72.2,72.6,74.2,75.1,72.6,18,21,16,0.555,27.3,31.1,25.7,5.108,5.9,177,11,7.8,0.00074,0.00107,72.2,69.8,10,0,.,.,16.01,0.00,0.00
15min,AgWx,beryljct,423,17JUL2019:21:00:00,74.1,13.05,70.2,70.5,71.3,72.5,70.5,21,23,19,0.544,29.3,31.4,28.1,5.261,5.4,171,4.7,6.3,0.00060,0.00088,72.0,69.8,10,0,.,.,16.01,0.00,0.00
15min,AgWx,beryljct,423,17JUL2019:21:15:00,72.3,13.03,69.5,70.3,70.0,70.5,69.5,21,22,20,0.504,28.4,29.9,27.0,4.735,5.2,175,4.2,6.5,0.00055,0.00081,71.8,69.8,10,0,.,.,16.01,0.00,0.00
15min,AgWx,beryljct,423,17JUL2019:21:30:00,70.8,13.04,69.0,68.4,69.4,70.2,68.4,21,22,20,0.521,27.9,28.9,26.8,6.182,5.2,174,5.6,6.3,0.00055,0.00081,71.5,69.8,10,0,.,.,16.02,0.01,0.00
15min,AgWx,beryljct,423,17JUL2019:21:45:00,69.5,13.02,67.9,67.5,68.4,68.9,67.3,21,22,20,0.482,26.5,27.8,25.6,5.59,4.6,177,4.3,5.7,0.00045,0.00069,71.3,69.9,10,0,.,.,16.02,0.00,0.00
15min,AgWx,beryljct,423,17JUL2019:22:00:00,68.3,13.02,67.3,67.3,67.6,68.1,66.7,21,22,20,0.498,26.2,27.1,25.6,5.108,5.2,176,4.8,6.6,0.00053,0.00078,71.0,69.9,10,0,.,.,16.02,0.00,0.00
15min,AgWx,beryljct,423,17JUL2019:22:15:00,67.4,13.01,67.9,68.0,67.6,68.4,66.4,21,23,19,0.480,26.2,27.6,25.0,5.875,5.2,175,7.3,6.2,0.00054,0.00078,70.7,69.9,10,0,.,.,16.02,0.00,0.00
15min,AgWx,beryljct,423,17JUL2019:22:30:00,66.7,13,61.0,63.9,66.8,68.4,63.9,24,32,21,0.652,28.3,33.6,26.3,6.16,5.2,166,7.7,6.4,0.00050,0.00074,70.4,69.9,10,0,.,.,16.02,0.00,0.00
15min,AgWx,beryljct,423,17JUL2019:22:45:00,65.2,12.98,58.2,58.7,60.6,63.6,58.7,39,45,33,0.762,35.2,37.5,33.0,6.445,6.1,147,4.9,8.0,0.00041,0.00057,70.2,69.8,10,0,.,.,16.02,0.00,0.00
15min,AgWx,beryljct,423,17JUL2019:23:00:00,63.3,12.97,56.5,57.3,58.1,58.9,57.3,47,50,44,0.801,38.1,38.9,37.0,6.226,6.9,143,3.6,8.4,0.00035,0.00048,69.9,69.8,10,0,.,.,16.02,0.00,0.00
15min,AgWx,beryljct,423,17JUL2019:23:15:00,61.8,12.97,57.7,57.3,57.1,58.0,56.2,50,54,46,0.780,38.5,39.7,37.5,5.327,6.0,145,4.5,7.9,0.00027,0.00038,69.6,69.8,10,0,.,.,16.02,0.00,0.00
15min,AgWx,beryljct,423,17JUL2019:23:30:00,61.0,12.97,68.8,64.6,61.0,64.6,57.2,39,49,30,0.616,35.7,38.4,32.2,5.765,5.1,164,18,6.6,0.00032,0.00047,69.3,69.8,10,0,.,.,16.02,0.00,0.00
15min,AgWx,beryljct,423,17JUL2019:23:45:00,62.7,12.95,74.6,73.3,70.2,73.3,65.0,22,29,20,0.554,29.8,32.8,28.6,11.64,8.2,201,11,12.4,0.00088,0.00119,69.1,69.7,10,0,.,.,16.03,0.00,0.00
15min,AgWx,bigpiney,439,17JUL2019:00:00:00,56.4,12.75,52.2,52.6,52.7,53.3,51.6,62,66,60,0.855,40.2,40.6,39.9,3.157,5.7,335,19,7.9,0.00017,0.00024,52.7,50.3,54,0,0,0.0,4.09,0.00,0.00
15min,AgWx,bigpiney,439,17JUL2019:00:15:00,55.9,12.75,50.0,50.6,51.5,52.5,50.6,66,69,63,0.862,40.6,40.7,40.4,2.017,2.8,349,28,4.7,0.00000,0.00003,52.7,50.4,54,0,0,0.0,4.09,0.00,0.00
15min,AgWx,bigpiney,439,17JUL2019:00:30:00,55.3,12.74,51.6,51.4,51.0,51.6,50.1,68,71,65,0.850,40.7,41.3,40.3,1.14,2.2,21,21,4.9,-0.00005,-0.00004,52.6,50.4,54,0,0,0.0,4.09,0.00,0.00
15min,AgWx,bigpiney,439,17JUL2019:00:45:00,54.7,12.73,51.3,51.2,52.1,53.2,51.2,64,67,61,0.861,40.3,40.7,39.8,3.179,2.0,15,8.7,4.2,-0.00005,-0.00005,52.6,50.3,54,0,0,0.0,4.09,0.00,0.00
15min,AgWx,bigpiney,439,17JUL2019:01:00:00,54.4,12.71,51.0,50.4,50.7,51.3,50.4,69,71,67,0.875,41.1,41.3,40.7,2.236,2.3,325,11,3.7,-0.00005,-0.00004,52.6,50.4,54,0,0,0.0,4.09,0.00,0.00
15min,AgWx,bigpiney,439,17JUL2019:01:15:00,54.2,12.71,51.6,51.4,51.2,51.6,50.4,66,70,64,0.841,40.4,41.1,40.0,1.907,1.3,296,26,3.1,-0.00011,-0.00014,52.6,50.4,54,0,0,0.0,4.09,0.00,0.00
15min,AgWx,bigpiney,439,17JUL2019:01:30:00,54.1,12.71,54.3,53.7,52.6,53.7,51.3,62,67,59,0.827,39.9,40.6,39.4,3.354,2.7,281,10,5.3,0.00001,0.00004,52.5,50.4,54,0,0,0.0,4.09,0.00,0.00
15min,AgWx,bigpiney,439,17JUL2019:01:45:00,54.3,12.7,53.8,53.8,53.8,54.2,53.4,59,60,58,0.833,39.7,40.0,39.5,4.077,4.6,291,10,6.3,0.00015,0.00023,52.5,50.4,54,0,0,0.0,4.09,0.00,0.00
15min,AgWx,bigpiney,439,17JUL2019:02:00:00,54.5,12.69,52.5,53.0,53.9,54.2,53.0,59,61,58,0.839,39.7,40.1,39.6,3.595,3.5,256,26,6.5,0.00009,0.00015,52.4,50.4,54,0,0,0.0,4.09,0.00,0.00
15min,AgWx,bigpiney,439,17JUL2019:02:15:00,54.5,12.68,48.7,49.0,50.4,53.0,48.9,68,72,61,0.841,40.3,40.6,40.0,3.705,3.9,227,7.4,4.7,0.00005,0.00008,52.4,50.4,54,0,0,0.0,4.09,0.00,0.00
15min,AgWx,bigpiney,439,17JUL2019:02:30:00,53.9,12.66,48.9,48.7,48.8,49.0,48.7,70,72,69,0.822,39.6,40.2,39.3,4.253,4.5,233,11,5.5,0.00006,0.00009,52.3,50.4,54,0,0,0.0,4.09,0.00,0.00
15min,AgWx,bigpiney,439,17JUL2019:02:45:00,53.2,12.66,49.7,49.2,48.7,49.2,48.2,70,72,68,0.804,39.4,39.8,38.9,4.428,4.1,255,13,5.7,0.00004,0.00008,52.3,50.4,54,0,0,0.0,4.09,0.00,0.00
15min,AgWx,bigpiney,439,17JUL2019:03:00:00,52.7,12.64,49.1,49.0,49.6,50.0,49.0,67,69,66,0.815,39.0,39.3,38.8,3.946,4.0,246,7.1,4.8,0.00006,0.00010,52.3,50.4,54,0,0,0.0,4.09,0.00,0.00
15min,AgWx,bigpiney,439,17JUL2019:03:15:00,52.1,12.64,45.8,46.2,47.9,49.0,46.2,70,74,68,0.786,38.8,39.3,38.3,2.916,3.9,239,9.2,4.9,0.00003,0.00006,52.2,50.4,54,0,0,0.0,4.09,0.00,0.00
15min,AgWx,bigpiney,439,17JUL2019:03:30:00,51.5,12.63,45.8,45.9,45.9,46.2,45.7,75,77,74,0.778,38.5,39.2,38.1,3.047,3.3,241,10,4.3,-0.00002,-0.00001,52.2,50.4,54,0,0,0.0,4.09,0.00,0.00
15min,AgWx,bigpiney,439,17JUL2019:03:45:00,50.7,12.61,43.9,44.6,45.2,45.9,44.6,76,77,74,0.764,38.0,38.4,37.6,3.793,1.2,217,11,3.8,-0.00013,-0.00017,52.1,50.4,54,0,0,0.0,4.09,0.00,0.00
15min,AgWx,bigpiney,439,17JUL2019:04:00:00,49.8,12.61,41.4,41.5,42.8,44.5,41.5,82,85,77,0.759,37.6,38.0,37.1,2.236,3.0,212,11,3.9,-0.00006,-0.00006,52.0,50.4,54,0,0,0.0,4.09,0.00,0.00
15min,AgWx,bigpiney,439,17JUL2019:04:15:00,48.9,12.6,41.6,41.3,41.2,41.5,41.1,87,88,85,0.778,37.8,38.1,37.5,2.762,2.2,235,21,3.8,-0.00010,-0.00012,52.0,50.4,54,0,0,0.0,4.09,0.00,0.00
15min,AgWx,bigpiney,439,17JUL2019:04:30:00,47.9,12.58,43.7,42.9,41.8,42.9,41.3,86,88,82,0.768,38.0,38.3,37.7,2.872,3.0,243,13,4.4,-0.00007,-0.00009,52.0,50.4,54,0,0,0.0,4.09,0.00,0.00
15min,AgWx,bigpiney,439,17JUL2019:04:45:00,47.3,12.57,44.0,43.6,43.1,43.6,42.9,80,82,79,0.759,37.5,37.8,37.4,2.126,2.8,222,9.5,3.4,-0.00006,-0.00007,51.9,50.4,54,0,0,0.0,4.09,0.00,0.00
15min,AgWx,bigpiney,439,17JUL2019:05:00:00,46.9,12.56,41.3,41.6,42.7,43.7,41.6,81,84,78,0.749,37.2,38.2,36.6,3.113,1.2,306,78,3.1,-0.00013,-0.00017,51.8,50.4,54,3,0,0.0,4.09,0.00,0.00
15min,AgWx,bigpiney,439,17JUL2019:05:15:00,46.4,12.57,40.1,40.0,40.6,41.6,40.0,88,90,84,0.753,37.2,37.8,36.8,1.381,1.9,326,31,3.5,-0.00034,-0.00033,51.8,50.5,54,12,0,0.0,4.09,0.00,0.00
15min,AgWx,bigpiney,439,17JUL2019:05:30:00,46.0,12.57,41.3,41.1,40.3,41.1,39.9,90,91,90,0.783,37.7,38.2,37.3,2.324,2.6,285,14,3.7,-0.00022,-0.00020,51.7,50.4,54,26,0,0.0,4.09,0.00,0.00
15min,AgWx,bigpiney,439,17JUL2019:05:45:00,45.7,12.61,43.4,42.8,41.8,42.8,40.8,88,90,87,0.819,38.6,39.4,37.8,2.017,1.9,263,23,3.0,-0.00010,-0.00008,51.7,50.4,54,55,0,0.0,4.09,0.00,0.00
15min,AgWx,bigpiney,439,17JUL2019:06:00:00,46.0,12.69,47.0,46.2,44.0,46.2,42.8,86,88,84,0.893,40.1,41.7,39.3,0.855,1.5,248,27,2.9,0.00010,0.00014,51.6,50.4,54,107,0,0.0,4.09,0.00,0.00
15min,AgWx,bigpiney,439,17JUL2019:06:15:00,47.1,12.67,47.6,47.2,47.2,47.5,46.2,79,84,76,0.885,41.1,41.5,40.1,1.381,0.3,181,34,1.6,0.00025,0.00028,51.6,50.4,54,85,0,0.0,4.09,0.00,0.00
15min,AgWx,bigpiney,439,17JUL2019:06:30:00,48.2,12.69,47.6,47.5,47.3,47.6,47.2,81,83,79,0.902,41.9,42.2,41.3,1.074,0.2,104,22,1.6,0.00035,0.00038,51.5,50.4,54,79,0,0.0,4.09,0.00,0.00
15min,AgWx,bigpiney,439,17JUL2019:06:45:00,49.1,12.77,49.8,49.4,47.9,49.4,47.4,81,83,75,0.895,42.2,43.1,41.4,1.995,1.4,216,17,3.4,0.00070,0.00079,51.4,50.4,54,177,0,0.0,4.09,0.00,0.00
15min,AgWx,bigpiney,439,17JUL2019:07:00:00,50.7,12.9,51.8,51.9,50.9,52.2,49.4,71,74,67,0.890,41.9,43.3,40.8,1.535,0.9,212,60,2.4,0.00115,0.00127,51.3,50.4,54,277,0,0.0,4.09,0.00,0.00
15min,AgWx,bigpiney,439,17JUL2019:07:15:00,52.4,12.85,52.0,52.2,52.0,52.3,51.9,67,70,64,0.922,41.5,42.8,40.2,1.841,1.2,112,28,2.6,0.00099,0.00113,51.3,50.4,54,194,0,0.0,4.09,0.00,0.00
15min,AgWx,bigpiney,439,17JUL2019:07:30:00,54.2,13.09,53.8,54.5,53.4,54.5,52.1,67,72,64,0.958,42.6,44.5,41.4,3.595,2.1,110,22,3.7,0.00190,0.00214,51.2,50.4,54,390,0,0.0,4.09,0.00,0.00
15min,AgWx,bigpiney,439,17JUL2019:07:45:00,56.1,13.14,55.3,55.4,55.1,55.8,54.2,65,68,62,0.967,43.4,45.0,42.2,1.688,1.9,106,22,3.3,0.00180,0.00204,51.1,50.3,54,337,0,0.0,4.09,0.00,0.00
15min,AgWx,bigpiney,439,17JUL2019:08:00:00,57.6,13.43,56.8,56.7,56.4,57.3,55.4,61,65,58,0.962,43.3,44.8,41.9,1.447,1.0,62,25,2.9,0.00206,0.00227,51.0,50.3,54,380,0,0.0,4.09,0.00,0.00
15min,AgWx,bigpiney,439,17JUL2019:08:15:00,59.2,13.7,61.0,59.9,58.2,59.9,56.7,61,63,58,1.091,44.7,46.9,43.4,0.986,1.3,40,31,3.5,0.00283,0.00310,51.0,50.4,54,515,0,0.0,4.09,0.00,0.00